Theta_e
347 347 346 346 347 347 347 345 345 344 345 346 345 345 347 346 346 347 348 349 352 352 353 353 353 353 351 353 352 351 351 352 352 349 352 348 348 346 341 342 340 338 336
347 347 347 347 347 347 348 346 343 344 345 345 346 346 348 349 348 347 350 351 353 352 352 353 353 352 354 354 353 353 352 353 351 352 349 351 348 346 343 341 338 335 334
347 347 346 347 347 348 348 348 347 346 345 345 345 345 345 345 346 347 350 352 351 352 353 353 352 352 353 352 352 352 351 348 351 350 351 348 350 345 343 342 340 335 334
349 348 348 348 347 347 348 348 349 347 346 346 347 346 346 344 345 346 352 352 350 350 352 350 351 353 353 354 353 353 352 353 351 349 351 351 351 348 344 345 341 335 335
350 350 350 350 349 349 348 349 349 350 349 348 349 346 345 346 348 350 350 348 351 348 350 353 353 353 351 350 349 352 353 353 352 351 353 353 351 346 347 347 343 344 334
348 348 347 349 349 350 349 348 349 350 348 350 350 350 350 349 349 347 346 351 352 348 351 352 353 349 349 350 350 350 350 352 354 352 352 350 352 352 350 348 345 342 343
342 343 343 344 345 348 349 349 350 350 350 351 350 351 350 351 348 346 347 347 347 349 351 353 353 352 351 352 351 350 350 350 349 350 352 352 351 352 351 347 346 344 344
343 342 341 341 341 341 342 346 346 348 350 352 352 352 352 350 346 346 346 346 349 347 348 350 348 349 348 349 350 351 350 347 346 345 347 349 344 343 341 343 344 341 339
341 342 341 341 341 340 340 339 339 342 344 346 348 351 352 351 347 347 347 347 348 348 347 348 350 352 352 349 351 353 351 339 342 343 342 341 340 338 337 335 340 337 332
340 340 340 340 339 339 338 339 339 339 339 339 344 344 345 348 346 346 346 346 347 349 348 348 347 347 346 345 345 346 345 339 335 331 330 326 325 325 326 329 332 338 328
339 341 341 341 339 339 339 339 338 339 338 338 340 339 339 340 341 342 342 342 344 347 345 344 343 343 342 341 342 342 342 341 335 327 322 320 320 322 323 324 322 324 324
340 340 340 340 340 340 340 339 340 339 338 336 336 335 334 333 335 337 341 341 341 341 341 340 339 339 339 338 338 339 339 336 330 321 318 319 319 321 322 322 324 323 323
338 336 335 335 335 335 335 334 334 333 332 330 328 327 326 326 328 333 334 338 339 339 338 334 331 331 331 333 333 333 330 326 322 319 319 318 318 317 317 316 316 317 317
335 332 331 331 330 330 330 330 329 329 329 328 327 325 324 325 326 326 330 332 333 333 329 328 327 328 328 325 323 323 322 322 323 321 320 317 315 314 310 307 307 309 311
330 329 327 326 326 327 327 326 326 327 327 327 326 325 324 324 324 325 325 328 329 328 327 325 326 325 324 323 323 322 322 322 322 321 318 316 313 310 308 309 313 313 311
330 328 327 324 321 320 319 321 323 324 325 326 325 326 325 325 324 325 324 324 323 323 324 323 323 323 322 321 321 320 320 320 320 319 317 313 310 310 311 311 314 314 312
329 327 326 325 323 322 321 321 319 319 321 321 322 323 323 323 321 322 321 321 322 324 323 323 323 322 319 319 320 319 317 316 316 316 315 311 310 309 308 309 312 312 313
327 326 325 323 322 321 320 321 320 322 323 318 320 321 321 320 321 320 321 321 321 321 320 320 319 319 318 317 315 315 312 311 310 309 309 311 311 311 311 311 311 313 313
326 324 324 323 322 321 321 320 319 320 319 320 319 318 319 319 319 319 319 321 321 321 320 319 317 315 314 313 312 311 311 311 311 310 310 310 310 309 310 310 310 311 312
326 324 326 326 324 323 320 320 321 321 320 319 319 318 316 318 320 320 318 318 318 317 317 317 315 315 314 313 312 311 310 309 309 309 308 308 308 308 308 309 309 310 310
323 324 324 325 324 323 321 321 320 318 316 314 313 312 311 315 316 319 319 318 318 317 317 316 315 314 313 311 310 309 308 308 307 307 308 308 308 307 308 308 308 309 309
320 323 324 325 324 324 324 323 323 322 322 320 318 314 309 311 312 312 315 317 317 318 318 318 317 315 313 312 310 309 308 307 307 306 306 308 308 308 308 307 307 308 308
323 320 320 321 321 321 322 322 321 320 321 322 321 319 315 313 312 313 314 315 315 316 316 316 317 317 315 313 311 311 310 309 308 308 307 308 308 308 307 307 306 307 307
325 323 323 320 318 318 319 320 319 317 318 320 321 321 320 318 316 313 313 315 315 315 315 315 316 316 316 314 313 312 311 310 310 309 309 308 307 306 306 306 306 305 305
322 323 322 323 322 321 322 321 321 321 320 319 318 318 318 319 319 317 313 313 314 314 314 315 315 315 315 314 313 313 311 308 309 308 309 308 308 307 306 306 306 305 305
321 321 323 323 323 323 322 322 322 322 321 320 320 320 319 319 318 318 316 314 312 313 313 314 314 314 315 314 314 312 310 309 308 307 307 308 308 307 307 306 306 306 306
Wind_Speed
23 22 22 22 22 22 21 22 21 19 18 16 18 20 19 17 16 16 16 14 11 11 9 9 9 10 10 9 8 9 9 9 11 9 6 8 8 8 8 10 9 7 7
25 22 22 21 21 22 21 22 23 23 19 17 16 17 18 18 18 19 18 15 14 14 14 13 14 11 12 11 12 12 12 12 11 13 10 7 7 8 9 11 9 8 7
22 21 20 20 21 23 23 21 21 22 21 19 17 19 18 17 18 19 19 19 17 16 16 15 16 14 14 14 14 14 14 14 14 14 12 10 8 7 9 12 12 11 9
19 21 21 21 23 23 23 23 22 23 22 19 20 21 21 20 19 16 13 16 19 18 18 18 17 16 17 16 15 15 15 14 14 16 15 13 10 9 9 11 11 11 11
15 17 18 17 19 20 20 22 22 22 22 21 21 22 22 21 17 16 17 19 19 19 18 17 18 20 21 20 19 17 16 16 16 13 13 10 11 11 11 9 11 11 12
8 12 13 13 16 18 18 19 20 21 22 20 21 21 20 20 21 23 22 19 19 22 19 19 20 21 22 24 23 23 22 17 15 13 12 12 13 11 10 11 11 9 8
4 5 7 11 14 15 16 16 16 18 18 20 21 21 23 23 26 29 27 26 26 23 22 21 20 20 21 19 20 22 21 19 19 16 14 13 12 10 9 11 11 10 11
7 6 4 4 9 10 9 9 8 8 12 16 19 20 21 23 26 25 26 26 24 24 24 22 22 22 22 18 15 15 13 11 13 11 11 10 9 10 9 8 9 9 12
5 8 13 16 13 10 11 8 6 4 5 9 12 15 18 19 23 24 24 24 22 23 24 19 18 15 15 17 14 15 13 13 13 14 12 11 11 11 9 6 8 7 4
5 4 7 9 10 10 8 7 7 10 12 12 10 15 18 17 21 22 22 19 17 15 15 17 18 18 18 16 14 12 15 15 11 6 3 1 2 2 1 5 3 6 3
3 3 6 7 15 13 13 12 10 14 11 10 10 9 9 12 15 15 12 13 11 8 8 9 11 13 13 12 9 9 11 11 11 8 4 2 1 2 3 4 4 2 3
1 2 4 6 5 7 10 9 10 7 7 6 5 4 4 5 8 9 9 10 8 7 7 7 6 7 5 5 4 7 7 6 9 8 6 7 5 6 7 7 8 6 1
5 9 10 11 10 9 8 8 9 8 6 5 3 3 3 1 0 4 6 9 9 9 7 5 5 2 1 2 1 1 3 4 7 10 10 6 6 7 7 9 10 10 9
9 11 11 12 11 10 9 9 8 7 5 5 5 5 4 3 3 3 7 6 8 11 14 13 11 9 9 10 11 12 9 8 7 9 9 9 7 8 9 11 12 12 9
10 11 10 9 8 9 10 9 9 8 8 6 6 6 3 4 3 5 5 10 12 14 14 12 14 9 11 8 9 9 8 7 9 8 9 9 10 9 8 7 3 4 6
7 6 7 6 6 8 11 13 11 10 9 8 6 4 7 5 6 7 7 8 9 7 8 9 11 11 10 8 8 7 6 6 8 10 10 12 12 9 4 3 3 4 5
7 6 6 6 7 8 8 7 8 8 7 7 7 6 5 6 7 8 7 6 6 7 7 5 5 5 6 5 5 4 5 5 7 7 8 10 9 5 5 4 4 3 5
8 8 8 8 7 7 5 5 6 4 4 4 6 6 6 6 6 5 4 4 5 7 7 7 6 6 6 6 6 6 8 7 7 8 6 6 5 4 4 4 4 3 6
8 8 8 7 6 6 5 5 5 5 4 4 4 3 3 4 4 5 5 4 4 5 5 6 6 6 7 7 6 6 5 4 3 3 3 3 3 2 2 2 2 3 4
7 8 8 7 7 5 5 6 6 5 5 5 4 3 3 3 2 2 3 4 5 5 5 5 4 4 4 5 5 6 7 7 5 4 4 2 2 1 1 1 1 3 4
7 7 8 7 7 7 6 6 5 5 4 4 3 2 3 2 2 3 3 3 3 4 4 4 4 4 3 3 3 4 4 4 5 5 5 4 2 2 1 1 2 2 2
7 8 7 7 7 6 5 4 3 3 2 2 3 3 3 3 2 4 5 5 5 4 3 3 3 3 3 4 4 4 4 4 3 4 4 4 4 3 2 2 2 3 3
7 8 8 8 7 7 6 5 5 5 5 5 5 5 5 6 6 6 5 5 6 5 5 4 4 5 5 5 4 4 4 4 5 5 5 4 4 3 2 2 2 3 4
8 6 8 8 8 7 6 6 9 9 7 7 7 7 7 7 8 8 8 8 7 6 6 5 5 6 7 6 6 5 5 5 5 5 6 4 3 3 3 3 4 5 6
10 9 7 6 7 8 8 8 9 11 10 10 9 9 9 9 10 11 10 11 10 9 8 8 7 8 8 9 9 8 7 6 6 7 6 6 7 6 5 5 5 5 6
10 12 12 11 11 11 11 10 8 9 12 12 12 11 10 10 10 11 13 13 13 12 11 11 11 11 10 9 10 10 10 9 8 8 7 7 9 9 8 7 6 4 4
Wind_Direction
214 216 217 216 219 226 229 238 239 241 239 249 246 245 233 233 235 239 239 245 241 239 237 245 251 250 249 244 250 255 255 246 266 277 272 275 269 246 241 242 252 248 264
215 214 218 222 222 226 231 234 240 240 240 247 242 237 230 236 236 239 240 236 242 248 249 245 252 252 249 251 251 249 252 245 255 269 276 272 260 255 249 249 248 244 239
217 218 220 224 226 227 228 229 231 237 241 248 250 254 248 253 257 253 248 239 237 244 251 250 252 253 256 256 250 252 253 260 251 254 264 266 248 245 249 251 253 245 249
214 216 219 222 226 228 231 227 225 234 241 245 250 249 254 254 255 251 245 239 247 253 253 253 259 257 253 254 255 257 260 260 260 245 261 254 249 247 242 250 254 248 240
219 221 219 225 230 225 224 227 230 230 239 246 250 256 255 254 257 248 249 252 254 261 262 260 261 257 256 260 260 261 257 259 261 261 261 248 244 243 245 257 251 253 244
214 228 223 229 230 230 220 221 226 233 242 243 244 248 251 253 257 263 263 262 259 264 265 264 262 262 264 261 261 263 259 259 259 261 269 270 270 256 258 253 257 247 254
206 223 233 238 237 227 227 220 221 231 238 242 243 244 249 253 256 259 264 267 261 262 260 258 259 260 260 259 259 257 259 255 258 261 264 268 275 267 258 248 239 246 253
228 212 235 213 215 199 192 202 199 220 238 242 245 246 249 253 259 262 262 261 261 262 266 266 266 263 266 267 255 247 239 243 247 252 257 265 260 261 260 256 247 247 247
245 232 232 215 210 207 202 188 192 220 262 270 258 254 251 256 257 262 260 261 255 259 266 268 264 267 266 265 251 246 236 231 246 254 253 258 260 264 263 253 249 237 218
158 244 246 228 200 207 208 222 230 252 266 273 272 264 252 242 252 255 259 260 255 253 252 258 262 261 269 280 267 248 237 241 227 224 228 261 306 343 250 216 249 253 182
338 287 243 253 238 242 248 262 230 236 233 251 263 270 259 247 247 254 261 257 243 232 241 251 268 282 288 285 267 243 244 247 218 201 173 196 153 67 72 65 41 182 197
24 162 164 197 187 197 216 220 215 197 177 181 206 231 263 264 251 255 254 234 216 199 209 237 258 277 275 269 246 256 253 228 191 179 161 135 124 98 77 60 75 53 88
137 124 129 132 128 131 131 130 118 120 125 138 164 161 141 136 92 217 206 201 179 158 154 142 122 79 11 30 144 111 95 130 155 152 144 146 135 110 93 89 84 81 70
138 131 127 119 115 109 103 97 89 91 111 137 139 139 118 84 73 85 133 150 149 140 132 122 105 99 93 94 90 92 97 113 131 133 135 132 124 112 107 102 95 96 92
138 126 113 100 97 96 98 97 97 106 115 109 110 118 116 118 113 120 126 132 134 130 125 121 115 116 105 104 100 103 113 114 118 127 134 132 122 113 113 93 86 88 100
137 117 111 117 127 121 115 100 103 100 107 107 105 108 115 106 101 115 130 130 124 120 118 129 125 132 133 132 114 108 114 122 129 142 146 145 139 138 153 170 162 134 121
146 136 122 114 118 116 116 119 120 98 95 95 94 106 105 102 114 113 111 105 97 105 100 98 106 104 116 117 113 109 115 120 127 134 146 145 147 160 162 178 187 199 159
136 132 130 135 136 134 130 128 128 123 125 111 104 107 99 103 105 88 83 79 81 97 109 112 111 109 108 110 114 125 132 128 132 137 154 157 158 166 181 182 183 188 165
144 144 142 139 134 137 131 128 122 118 123 122 125 103 116 112 114 99 84 87 96 101 106 110 115 125 130 139 138 135 130 130 147 156 165 159 144 171 168 149 143 155 169
125 133 141 142 141 135 123 109 110 116 117 119 125 127 143 111 119 110 91 100 107 109 113 116 129 137 147 152 150 148 140 151 155 154 146 136 143 170 161 152 158 179 197
141 146 144 136 139 134 126 118 116 117 116 109 99 128 141 114 144 168 168 160 141 132 126 127 141 147 152 156 160 163 168 169 170 164 164 167 158 189 169 215 215 202 191
154 157 157 153 155 160 158 158 165 170 170 167 162 182 187 210 219 204 199 193 189 186 185 187 178 171 164 162 171 162 163 163 154 154 158 156 158 158 142 149 206 225 221
172 179 180 183 184 189 196 205 213 218 214 210 207 203 215 219 224 223 216 208 208 207 209 214 220 207 195 184 182 175 166 166 163 158 164 165 162 178 210 260 249 242 245
203 203 202 201 200 210 220 238 231 226 222 222 224 229 232 233 232 230 225 220 219 221 225 226 214 196 198 196 200 198 193 183 176 183 181 180 176 192 223 239 249 253 251
216 218 221 223 221 229 251 271 247 231 230 232 234 235 240 235 232 228 223 221 219 216 214 208 200 198 197 196 195 194 198 199 198 198 201 200 200 199 207 223 233 241 244
220 221 227 232 237 244 251 257 257 239 238 239 239 238 243 248 248 241 231 227 223 221 216 215 215 215 216 220 220 220 222 219 216 217 226 231 224 221 229 231 217 229 257